LAN843 SCEL-SCIP

Flight info

Callsign LAN843
Flight time 4h 41m
Altitude 36000
Route DGO6 DGO UL348 OSOGU/N0477F380 UL348 ASALA ASALA2A
Aircraft B789/H-SDE1E2E3FGHIJ2J3J4J5M1RWXY/LB1D1

Departure

Time 2026-04-22 13:55
Airport Comodoro Arturo Merino Benítez International Airport (SCEL)

Arrival

Time 2026-04-22 18:36
Airport Mataveri International Airport (SCIP)
Time Latitude Longitude Altitude Speed Heading
2026-04-22 13:29 -33.39587 -70.79534 1570 ft 0 kts 176°
2026-04-22 13:41 -33.39567 -70.79535 1570 ft 4 kts 177°
2026-04-22 13:41 -33.39543 -70.79537 1570 ft 4 kts 180°
2026-04-22 13:42 -33.39520 -70.79530 1570 ft 4 kts 234°
2026-04-22 13:42 -33.39513 -70.79502 1570 ft 4 kts 269°
2026-04-22 13:42 -33.39513 -70.79485 1570 ft 1 kts 267°
2026-04-22 13:42 -33.39513 -70.79483 1570 ft 0 kts 267°
2026-04-22 13:45 -33.39513 -70.79487 1570 ft 1 kts 267°
2026-04-22 13:45 -33.39514 -70.79509 1570 ft 4 kts 267°
2026-04-22 13:46 -33.39512 -70.79549 1570 ft 5 kts 283°
2026-04-22 13:46 -33.39489 -70.79570 1570 ft 4 kts 338°
2026-04-22 13:46 -33.39454 -70.79582 1570 ft 6 kts 349°
2026-04-22 13:46 -33.39403 -70.79584 1570 ft 8 kts 359°
2026-04-22 13:47 -33.39348 -70.79606 1570 ft 8 kts 312°
2026-04-22 13:47 -33.39337 -70.79670 1570 ft 9 kts 274°
2026-04-22 13:47 -33.39338 -70.79752 1570 ft 11 kts 266°
2026-04-22 13:47 -33.39343 -70.79849 1570 ft 12 kts 266°
2026-04-22 13:48 -33.39341 -70.79954 1570 ft 13 kts 276°
2026-04-22 13:48 -33.39292 -70.80040 1571 ft 13 kts 327°
2026-04-22 13:48 -33.39205 -70.80062 1572 ft 14 kts 354°
2026-04-22 13:48 -33.39106 -70.80067 1572 ft 15 kts 359°
2026-04-22 13:49 -33.38999 -70.80073 1572 ft 16 kts 357°
2026-04-22 13:49 -33.38883 -70.80080 1572 ft 17 kts 358°
2026-04-22 13:49 -33.38756 -70.80087 1572 ft 19 kts 358°
2026-04-22 13:49 -33.38620 -70.80094 1572 ft 20 kts 356°
2026-04-22 13:50 -33.38478 -70.80102 1572 ft 21 kts 359°
2026-04-22 13:50 -33.38324 -70.80109 1571 ft 23 kts 357°
2026-04-22 13:50 -33.38163 -70.80118 1571 ft 23 kts 358°
2026-04-22 13:50 -33.38004 -70.80127 1571 ft 23 kts 357°
2026-04-22 13:51 -33.37847 -70.80136 1571 ft 22 kts 358°
2026-04-22 13:51 -33.37699 -70.80141 1572 ft 22 kts 357°
2026-04-22 13:51 -33.37547 -70.80151 1572 ft 21 kts 357°
2026-04-22 13:51 -33.37401 -70.80158 1572 ft 20 kts 358°
2026-04-22 13:52 -33.37275 -70.80165 1572 ft 17 kts 357°
2026-04-22 13:52 -33.37154 -70.80169 1572 ft 17 kts 358°
2026-04-22 13:52 -33.37039 -70.80193 1572 ft 15 kts 324°
2026-04-22 13:52 -33.37033 -70.80284 1576 ft 9 kts 232°
2026-04-22 13:53 -33.37068 -70.80316 1578 ft 6 kts 211°
2026-04-22 13:54 -33.37081 -70.80325 1579 ft 6 kts 210°
2026-04-22 13:54 -33.37113 -70.80346 1579 ft 7 kts 209°
2026-04-22 13:54 -33.37207 -70.80373 1579 ft 25 kts 181°
2026-04-22 13:54 -33.37552 -70.80356 1579 ft 81 kts 177°
2026-04-22 13:55 -33.38341 -70.80313 1579 ft 143 kts 177°
2026-04-22 13:55 -33.39502 -70.80248 1672 ft 187 kts 175°
2026-04-22 13:55 -33.40760 -70.80151 2794 ft 177 kts 175°
2026-04-22 13:55 -33.42025 -70.80066 3515 ft 191 kts 177°
2026-04-22 13:56 -33.43401 -70.80046 4117 ft 210 kts 179°
2026-04-22 13:56 -33.44983 -70.79983 4687 ft 239 kts 176°
2026-04-22 13:56 -33.46717 -70.79871 5388 ft 262 kts 176°
2026-04-22 13:56 -33.48600 -70.79752 6265 ft 276 kts 177°
2026-04-22 13:57 -33.50536 -70.79699 7278 ft 281 kts 185°
2026-04-22 13:57 -33.52381 -70.80396 8416 ft 281 kts 217°
2026-04-22 13:57 -33.53652 -70.82224 9188 ft 291 kts 250°
2026-04-22 13:57 -33.54226 -70.84513 10395 ft 290 kts 259°
2026-04-22 13:58 -33.54591 -70.86967 10858 ft 315 kts 262°
2026-04-22 13:58 -33.54997 -70.89653 11258 ft 342 kts 259°
2026-04-22 13:58 -33.55549 -70.92494 12055 ft 350 kts 256°
2026-04-22 13:58 -33.56117 -70.95333 13109 ft 353 kts 257°
2026-04-22 13:59 -33.56649 -70.98243 14085 ft 358 kts 258°
2026-04-22 13:59 -33.57025 -71.01222 14958 ft 362 kts 259°
2026-04-22 13:59 -33.57493 -71.04199 15873 ft 364 kts 257°
2026-04-22 13:59 -33.57978 -71.07199 16771 ft 368 kts 258°
2026-04-22 14:00 -33.58407 -71.10199 17629 ft 371 kts 259°
2026-04-22 14:00 -33.58832 -71.13272 18477 ft 375 kts 258°
2026-04-22 14:00 -33.59281 -71.16371 19234 ft 376 kts 258°
2026-04-22 14:00 -33.59736 -71.19459 20070 ft 376 kts 259°
2026-04-22 14:01 -33.60180 -71.22528 20872 ft 376 kts 259°
2026-04-22 14:01 -33.60623 -71.25630 21640 ft 377 kts 260°
2026-04-22 14:01 -33.61070 -71.28746 22379 ft 378 kts 260°
2026-04-22 14:01 -33.61522 -71.31881 23095 ft 380 kts 261°
2026-04-22 14:02 -33.61966 -71.34978 23789 ft 381 kts 261°
2026-04-22 14:02 -33.62415 -71.38126 24349 ft 382 kts 261°
2026-04-22 14:02 -33.62867 -71.41292 24915 ft 383 kts 261°
2026-04-22 14:02 -33.63314 -71.44431 25458 ft 384 kts 262°
2026-04-22 14:03 -33.63762 -71.47579 25987 ft 386 kts 262°
2026-04-22 14:03 -33.64215 -71.50773 26525 ft 387 kts 262°
2026-04-22 14:03 -33.64669 -71.53977 27060 ft 388 kts 263°
2026-04-22 14:03 -33.65123 -71.57188 27599 ft 390 kts 263°
2026-04-22 14:04 -33.65568 -71.60373 28114 ft 391 kts 264°
2026-04-22 14:04 -33.65759 -71.63625 28615 ft 390 kts 271°
2026-04-22 14:04 -33.65818 -71.66902 29120 ft 392 kts 270°
2026-04-22 14:04 -33.65881 -71.70151 29642 ft 393 kts 271°
2026-04-22 14:05 -33.65939 -71.73451 30148 ft 394 kts 271°
2026-04-22 14:05 -33.65993 -71.76717 30575 ft 396 kts 271°
2026-04-22 14:05 -33.66106 -71.83399 31306 ft 401 kts 271°
2026-04-22 14:06 -33.66161 -71.86716 31666 ft 403 kts 271°
2026-04-22 14:06 -33.66215 -71.90121 32019 ft 406 kts 271°
2026-04-22 14:06 -33.66268 -71.93473 32369 ft 408 kts 271°
2026-04-22 14:06 -33.66322 -71.96898 32713 ft 411 kts 272°
2026-04-22 14:07 -33.66375 -72.00347 33046 ft 413 kts 272°
2026-04-22 14:07 -33.66427 -72.03789 33366 ft 416 kts 272°
2026-04-22 14:07 -33.66478 -72.07288 33689 ft 418 kts 272°
2026-04-22 14:07 -33.66529 -72.10804 34002 ft 421 kts 272°
2026-04-22 14:08 -33.66579 -72.14286 34414 ft 420 kts 272°
2026-04-22 14:08 -33.66629 -72.17798 34798 ft 419 kts 272°
2026-04-22 14:08 -33.66677 -72.21312 35164 ft 419 kts 272°
2026-04-22 14:08 -33.66723 -72.24817 35534 ft 419 kts 272°
2026-04-22 14:09 -33.66768 -72.28265 35906 ft 418 kts 272°
2026-04-22 14:09 -33.66812 -72.31653 36103 ft 422 kts 272°
2026-04-22 14:09 -33.66855 -72.35176 36258 ft 426 kts 272°
2026-04-22 14:10 -33.66943 -72.42384 36248 ft 430 kts 272°
2026-04-22 14:10 -33.67026 -72.49523 36250 ft 428 kts 272°
2026-04-22 14:11 -33.67104 -72.56694 36252 ft 428 kts 272°
2026-04-22 14:11 -33.67178 -72.63809 36256 ft 429 kts 272°
2026-04-22 14:12 -33.67237 -72.69795 36255 ft 429 kts 272°
2026-04-22 14:12 -33.67304 -72.76979 36261 ft 430 kts 272°
2026-04-22 14:13 -33.67367 -72.84136 36262 ft 430 kts 272°
2026-04-22 14:13 -33.67430 -72.91324 36260 ft 430 kts 272°
2026-04-22 14:14 -33.67489 -72.98497 36265 ft 431 kts 272°
2026-04-22 14:14 -33.67525 -73.05709 36270 ft 431 kts 272°
2026-04-22 14:15 -33.67542 -73.12933 36270 ft 431 kts 272°
2026-04-22 14:15 -33.67563 -73.20101 36275 ft 431 kts 272°
2026-04-22 14:16 -33.67576 -73.27316 36275 ft 431 kts 272°
2026-04-22 14:16 -33.67587 -73.34542 36276 ft 432 kts 272°
2026-04-22 14:17 -33.67592 -73.41741 36280 ft 432 kts 272°
2026-04-22 14:17 -33.67594 -73.48987 36283 ft 433 kts 272°
2026-04-22 14:18 -33.67592 -73.56173 36288 ft 433 kts 272°
2026-04-22 14:18 -33.67585 -73.63411 36284 ft 432 kts 272°
2026-04-22 14:19 -33.67574 -73.70609 36288 ft 433 kts 272°
2026-04-22 14:19 -33.67559 -73.77832 36293 ft 433 kts 272°
2026-04-22 14:20 -33.67528 -73.88724 36296 ft 434 kts 272°
2026-04-22 14:20 -33.67503 -73.95950 36301 ft 434 kts 272°
2026-04-22 14:21 -33.67456 -74.06823 36306 ft 436 kts 272°
2026-04-22 14:22 -33.67400 -74.17745 36308 ft 436 kts 272°
2026-04-22 14:23 -33.67334 -74.28670 36311 ft 436 kts 272°
2026-04-22 14:23 -33.67284 -74.35991 36308 ft 437 kts 272°
2026-04-22 14:24 -33.67231 -74.43269 36316 ft 437 kts 272°
2026-04-22 14:24 -33.67173 -74.50533 36314 ft 437 kts 272°
2026-04-22 14:25 -33.67111 -74.57838 36308 ft 437 kts 272°
2026-04-22 14:25 -33.67044 -74.65105 36306 ft 438 kts 272°
2026-04-22 14:26 -33.66973 -74.72448 36323 ft 439 kts 272°
2026-04-22 14:26 -33.66898 -74.79762 36311 ft 439 kts 272°
2026-04-22 14:27 -33.66818 -74.87104 36322 ft 439 kts 272°
2026-04-22 14:27 -33.66734 -74.94424 36314 ft 440 kts 272°
2026-04-22 14:28 -33.66539 -75.01727 36340 ft 438 kts 276°
2026-04-22 14:28 -33.66005 -75.09052 36323 ft 439 kts 276°
2026-04-22 14:29 -33.65467 -75.16336 36321 ft 440 kts 276°
2026-04-22 14:29 -33.64921 -75.23650 36310 ft 440 kts 276°
2026-04-22 14:30 -33.64375 -75.30953 36325 ft 440 kts 276°
2026-04-22 14:30 -33.63819 -75.38286 36321 ft 440 kts 276°
2026-04-22 14:31 -33.63263 -75.45585 36329 ft 441 kts 276°
2026-04-22 14:31 -33.62702 -75.52882 36329 ft 441 kts 276°
2026-04-22 14:32 -33.62134 -75.60229 36323 ft 441 kts 276°
2026-04-22 14:32 -33.61564 -75.67525 36332 ft 442 kts 276°
2026-04-22 14:33 -33.60984 -75.74899 36330 ft 442 kts 276°
2026-04-22 14:33 -33.60404 -75.82227 36333 ft 443 kts 276°
2026-04-22 14:34 -33.59814 -75.89618 36328 ft 444 kts 276°
2026-04-22 14:34 -33.59223 -75.96964 36339 ft 444 kts 276°
2026-04-22 14:35 -33.58623 -76.04368 36327 ft 444 kts 276°
2026-04-22 14:35 -33.58022 -76.11728 36332 ft 445 kts 276°
2026-04-22 14:36 -33.57415 -76.19103 36339 ft 445 kts 276°
2026-04-22 14:36 -33.56801 -76.26514 36335 ft 446 kts 276°
2026-04-22 14:37 -33.56185 -76.33890 36333 ft 446 kts 276°
2026-04-22 14:37 -33.55562 -76.41310 36337 ft 446 kts 276°
2026-04-22 14:38 -33.54937 -76.48687 36329 ft 446 kts 276°
2026-04-22 14:38 -33.54305 -76.56098 36333 ft 447 kts 276°
2026-04-22 14:39 -33.53670 -76.63483 36343 ft 447 kts 276°
2026-04-22 14:39 -33.53032 -76.70868 36343 ft 447 kts 276°
2026-04-22 14:40 -33.52062 -76.81978 36346 ft 447 kts 276°
2026-04-22 14:40 -33.51406 -76.89435 36341 ft 448 kts 276°
2026-04-22 14:41 -33.50751 -76.96824 36338 ft 448 kts 276°
2026-04-22 14:41 -33.50090 -77.04229 36344 ft 448 kts 276°
2026-04-22 14:42 -33.49419 -77.11694 36345 ft 448 kts 276°
2026-04-22 14:42 -33.48750 -77.19090 36347 ft 448 kts 276°
2026-04-22 14:43 -33.48075 -77.26501 36347 ft 449 kts 276°
2026-04-22 14:43 -33.47390 -77.33972 36334 ft 449 kts 276°
2026-04-22 14:44 -33.46707 -77.41379 36349 ft 450 kts 276°
2026-04-22 14:44 -33.46013 -77.48848 36349 ft 450 kts 276°
2026-04-22 14:45 -33.45318 -77.56277 36352 ft 451 kts 276°
2026-04-22 14:45 -33.44616 -77.63731 36353 ft 451 kts 276°
2026-04-22 14:46 -33.43913 -77.71160 36358 ft 451 kts 276°
2026-04-22 14:46 -33.43200 -77.78631 36360 ft 451 kts 276°
2026-04-22 14:47 -33.42486 -77.86073 36360 ft 452 kts 276°
2026-04-22 14:47 -33.41763 -77.93557 36362 ft 451 kts 276°
2026-04-22 14:48 -33.41039 -78.01000 36358 ft 452 kts 276°
2026-04-22 14:48 -33.40306 -78.08499 36363 ft 452 kts 276°
2026-04-22 14:49 -33.39572 -78.15956 36359 ft 452 kts 276°
2026-04-22 14:49 -33.38830 -78.23447 36358 ft 452 kts 276°
2026-04-22 14:50 -33.38088 -78.30893 36359 ft 452 kts 276°
2026-04-22 14:50 -33.37338 -78.38369 36359 ft 452 kts 276°
2026-04-22 14:51 -33.36586 -78.45819 36356 ft 453 kts 276°
2026-04-22 14:51 -33.35826 -78.53309 36358 ft 453 kts 276°
2026-04-22 14:52 -33.35063 -78.60781 36359 ft 453 kts 276°
2026-04-22 14:52 -33.34297 -78.68232 36361 ft 453 kts 276°
2026-04-22 14:53 -33.33526 -78.75691 36357 ft 454 kts 276°
2026-04-22 14:53 -33.32745 -78.83203 36361 ft 454 kts 276°
2026-04-22 14:54 -33.31960 -78.90709 36362 ft 454 kts 277°
2026-04-22 14:54 -33.31305 -78.96940 36360 ft 454 kts 277°
2026-04-22 14:55 -33.30381 -79.05675 36363 ft 455 kts 277°
2026-04-22 14:55 -33.29585 -79.13156 36366 ft 455 kts 277°
2026-04-22 14:56 -33.28783 -79.20644 36363 ft 455 kts 277°
2026-04-22 14:56 -33.28108 -79.26908 36364 ft 455 kts 277°
2026-04-22 14:57 -33.27295 -79.34420 36371 ft 454 kts 277°
2026-04-22 14:57 -33.26483 -79.41888 36369 ft 454 kts 277°
2026-04-22 14:58 -33.25666 -79.49347 36368 ft 454 kts 277°
2026-04-22 14:58 -33.24844 -79.56814 36370 ft 455 kts 277°
2026-04-22 14:59 -33.24011 -79.64340 36373 ft 455 kts 277°
2026-04-22 14:59 -33.23180 -79.71805 36375 ft 455 kts 277°
2026-04-22 15:00 -33.22345 -79.79271 36372 ft 454 kts 277°
2026-04-22 15:00 -33.21500 -79.86774 36371 ft 454 kts 277°
2026-04-22 15:01 -33.20657 -79.94227 36377 ft 455 kts 277°
2026-04-22 15:01 -33.19869 -80.01765 36388 ft 455 kts 274°
2026-04-22 15:02 -33.19288 -80.09282 36386 ft 456 kts 275°
2026-04-22 15:02 -33.18708 -80.16786 36395 ft 455 kts 275°
2026-04-22 15:03 -33.18121 -80.24341 36388 ft 455 kts 275°
2026-04-22 15:03 -33.17530 -80.31840 36390 ft 456 kts 275°
2026-04-22 15:04 -33.16933 -80.39402 36395 ft 455 kts 275°
2026-04-22 15:04 -33.16334 -80.46896 36389 ft 455 kts 275°
2026-04-22 15:05 -33.15728 -80.54444 36392 ft 456 kts 275°
2026-04-22 15:05 -33.15119 -80.61965 36388 ft 457 kts 275°
2026-04-22 15:06 -33.14504 -80.69505 36391 ft 456 kts 275°
2026-04-22 15:06 -33.13882 -80.77064 36388 ft 456 kts 275°
2026-04-22 15:07 -33.13260 -80.84575 36393 ft 457 kts 275°
2026-04-22 15:07 -33.12632 -80.92104 36392 ft 457 kts 275°
2026-04-22 15:08 -33.11995 -80.99673 36392 ft 458 kts 275°
2026-04-22 15:08 -33.11357 -81.07216 36390 ft 458 kts 275°
2026-04-22 15:09 -33.10714 -81.14750 36388 ft 457 kts 275°
2026-04-22 15:09 -33.10064 -81.22322 36387 ft 458 kts 275°
2026-04-22 15:10 -33.09411 -81.29870 36391 ft 458 kts 275°
2026-04-22 15:10 -33.08756 -81.37388 36397 ft 458 kts 275°
2026-04-22 15:11 -33.08093 -81.44935 36392 ft 458 kts 275°
2026-04-22 15:11 -33.07424 -81.52509 36388 ft 458 kts 275°
2026-04-22 15:12 -33.06755 -81.60029 36393 ft 458 kts 275°
2026-04-22 15:12 -33.06078 -81.67582 36395 ft 458 kts 275°
2026-04-22 15:13 -33.05395 -81.75156 36390 ft 458 kts 275°
2026-04-22 15:13 -33.04712 -81.82676 36391 ft 458 kts 275°
2026-04-22 15:14 -33.04021 -81.90235 36389 ft 457 kts 275°
2026-04-22 15:14 -33.03329 -81.97748 36390 ft 457 kts 275°
2026-04-22 15:15 -33.02629 -82.05302 36387 ft 457 kts 276°
2026-04-22 15:15 -33.01928 -82.12817 36390 ft 458 kts 276°
2026-04-22 15:16 -33.01221 -82.20343 36390 ft 458 kts 276°
2026-04-22 15:16 -33.00506 -82.27903 36393 ft 458 kts 276°
2026-04-22 15:17 -32.99790 -82.35432 36391 ft 459 kts 276°
2026-04-22 15:17 -32.99068 -82.42976 36395 ft 459 kts 276°
2026-04-22 15:18 -32.98337 -82.50554 36391 ft 459 kts 276°
2026-04-22 15:18 -32.97607 -82.58087 36391 ft 459 kts 276°
2026-04-22 15:19 -32.96870 -82.65632 36391 ft 460 kts 276°
2026-04-22 15:19 -32.96125 -82.73219 36391 ft 459 kts 276°
2026-04-22 15:20 -32.95379 -82.80760 36395 ft 459 kts 276°
2026-04-22 15:20 -32.94629 -82.88299 36394 ft 459 kts 276°
2026-04-22 15:21 -32.93874 -82.95840 36397 ft 459 kts 276°
2026-04-22 15:21 -32.93112 -83.03414 36389 ft 459 kts 276°
2026-04-22 15:22 -32.92351 -83.10921 36399 ft 459 kts 276°
2026-04-22 15:22 -32.91579 -83.18490 36397 ft 459 kts 276°
2026-04-22 15:23 -32.90808 -83.26011 36393 ft 459 kts 276°
2026-04-22 15:23 -32.90028 -83.33574 36394 ft 460 kts 276°
2026-04-22 15:24 -32.89246 -83.41107 36397 ft 460 kts 276°
2026-04-22 15:24 -32.88451 -83.48719 36398 ft 461 kts 276°
2026-04-22 15:25 -32.87658 -83.56272 36400 ft 461 kts 276°
2026-04-22 15:25 -32.86860 -83.63821 36398 ft 462 kts 276°
2026-04-22 15:26 -32.86053 -83.71420 36399 ft 462 kts 276°
2026-04-22 15:26 -32.85245 -83.78977 36397 ft 461 kts 276°
2026-04-22 15:27 -32.84431 -83.86545 36398 ft 461 kts 276°
2026-04-22 15:27 -32.83616 -83.94076 36400 ft 461 kts 276°
2026-04-22 15:28 -32.82792 -84.01659 36402 ft 461 kts 276°
2026-04-22 15:28 -32.81968 -84.09187 36403 ft 461 kts 276°
2026-04-22 15:29 -32.81133 -84.16777 36403 ft 461 kts 277°
2026-04-22 15:30 -32.80020 -84.26828 36404 ft 462 kts 277°
2026-04-22 15:30 -32.79034 -84.35670 36403 ft 462 kts 277°
2026-04-22 15:31 -32.78188 -84.43215 36401 ft 462 kts 277°
2026-04-22 15:31 -32.77330 -84.50815 36405 ft 462 kts 277°
2026-04-22 15:32 -32.76474 -84.58371 36403 ft 463 kts 277°
2026-04-22 15:32 -32.75607 -84.65968 36403 ft 463 kts 277°
2026-04-22 15:33 -32.74741 -84.73520 36406 ft 463 kts 277°
2026-04-22 15:33 -32.73865 -84.81115 36408 ft 463 kts 277°
2026-04-22 15:34 -32.72988 -84.88682 36405 ft 463 kts 277°
2026-04-22 15:34 -32.72108 -84.96232 36403 ft 463 kts 277°
2026-04-22 15:35 -32.71370 -85.02542 36408 ft 463 kts 277°
2026-04-22 15:35 -32.70342 -85.11395 36410 ft 464 kts 277°
2026-04-22 15:36 -32.69454 -85.18950 36406 ft 463 kts 277°
2026-04-22 15:36 -32.68559 -85.26556 36407 ft 464 kts 277°
2026-04-22 15:37 -32.67659 -85.34151 36407 ft 464 kts 277°
2026-04-22 15:37 -32.66759 -85.41706 36403 ft 463 kts 277°
2026-04-22 15:38 -32.65855 -85.49264 36409 ft 464 kts 277°
2026-04-22 15:38 -32.64485 -85.60628 36409 ft 464 kts 277°
2026-04-22 15:39 -32.63567 -85.68202 36407 ft 464 kts 277°
2026-04-22 15:39 -32.62645 -85.75766 36406 ft 464 kts 277°
2026-04-22 15:40 -32.61714 -85.83366 36406 ft 464 kts 277°
2026-04-22 15:40 -32.60940 -85.89654 36406 ft 464 kts 277°
2026-04-22 15:41 -32.60000 -85.97255 36407 ft 464 kts 277°
2026-04-22 15:41 -32.59059 -86.04827 36407 ft 465 kts 277°
2026-04-22 15:42 -32.58114 -86.12389 36407 ft 464 kts 277°
2026-04-22 15:42 -32.57168 -86.19926 36406 ft 464 kts 277°
2026-04-22 15:43 -32.56210 -86.27519 36406 ft 464 kts 277°
2026-04-22 15:43 -32.55253 -86.35067 36408 ft 465 kts 278°
2026-04-22 15:44 -32.54285 -86.42662 36405 ft 464 kts 278°
2026-04-22 15:44 -32.53322 -86.50190 36408 ft 464 kts 278°
2026-04-22 15:45 -32.52346 -86.57774 36409 ft 464 kts 278°
2026-04-22 15:45 -32.51373 -86.65296 36404 ft 464 kts 278°
2026-04-22 15:46 -32.50388 -86.72880 36405 ft 465 kts 278°
2026-04-22 15:46 -32.49402 -86.80433 36409 ft 464 kts 278°
2026-04-22 15:47 -32.48412 -86.87981 36406 ft 463 kts 278°
2026-04-22 15:47 -32.47422 -86.95492 36409 ft 464 kts 278°
2026-04-22 15:48 -32.46418 -87.03071 36405 ft 464 kts 278°
2026-04-22 15:48 -32.45416 -87.10606 36411 ft 464 kts 278°
2026-04-22 15:49 -32.44405 -87.18168 36411 ft 463 kts 278°
2026-04-22 15:49 -32.43397 -87.25675 36405 ft 463 kts 278°
2026-04-22 15:50 -32.42379 -87.33216 36407 ft 463 kts 278°
2026-04-22 15:50 -32.41362 -87.40714 36412 ft 463 kts 278°
2026-04-22 15:51 -32.40337 -87.48243 36405 ft 462 kts 278°
2026-04-22 15:51 -32.39313 -87.55728 36407 ft 462 kts 278°
2026-04-22 15:52 -32.38279 -87.63253 36407 ft 462 kts 278°
2026-04-22 15:52 -32.37244 -87.70750 36407 ft 462 kts 277°
2026-04-22 15:53 -32.36207 -87.78228 36410 ft 462 kts 277°
2026-04-22 15:53 -32.35164 -87.85714 36409 ft 462 kts 277°
2026-04-22 15:54 -32.34111 -87.93247 36407 ft 462 kts 277°
2026-04-22 15:54 -32.33061 -88.00712 36407 ft 462 kts 277°
2026-04-22 15:55 -32.32000 -88.08228 36410 ft 462 kts 277°
2026-04-22 15:55 -32.30943 -88.15683 36406 ft 462 kts 277°
2026-04-22 15:56 -32.29880 -88.23151 36406 ft 462 kts 277°
2026-04-22 15:56 -32.28813 -88.30604 36410 ft 461 kts 277°
2026-04-22 15:57 -32.27737 -88.38096 36406 ft 460 kts 277°
2026-04-22 15:57 -32.26664 -88.45538 36406 ft 461 kts 277°
2026-04-22 15:58 -32.25581 -88.53011 36406 ft 460 kts 277°
2026-04-22 15:58 -32.24499 -88.60451 36481 ft 465 kts 277°
2026-04-22 15:59 -32.23945 -88.64244 36927 ft 463 kts 277°
2026-04-22 15:59 -32.23403 -88.67942 37369 ft 461 kts 277°
2026-04-22 15:59 -32.22853 -88.71696 37775 ft 460 kts 277°
2026-04-22 15:59 -32.22314 -88.75365 38183 ft 458 kts 277°
2026-04-22 16:00 -32.21764 -88.79101 38419 ft 461 kts 276°
2026-04-22 16:00 -32.21218 -88.82811 38411 ft 464 kts 276°
2026-04-22 16:00 -32.20103 -88.90326 38416 ft 460 kts 276°
2026-04-22 16:01 -32.19002 -88.97742 38407 ft 459 kts 276°
2026-04-22 16:01 -32.17897 -89.05146 38406 ft 459 kts 276°
2026-04-22 16:02 -32.16785 -89.12562 38408 ft 459 kts 276°
2026-04-22 16:02 -32.15670 -89.19970 38408 ft 458 kts 276°
2026-04-22 16:03 -32.14557 -89.27339 38412 ft 457 kts 276°
2026-04-22 16:03 -32.13439 -89.34709 38408 ft 456 kts 276°
2026-04-22 16:04 -32.12316 -89.42078 38405 ft 455 kts 276°
2026-04-22 16:04 -32.11189 -89.49448 38409 ft 454 kts 276°
2026-04-22 16:05 -32.10066 -89.56755 38410 ft 454 kts 276°
2026-04-22 16:05 -32.08935 -89.64093 38404 ft 453 kts 276°
2026-04-22 16:06 -32.07807 -89.71378 38411 ft 452 kts 276°
2026-04-22 16:06 -32.06668 -89.78708 38409 ft 452 kts 276°
2026-04-22 16:07 -32.05535 -89.85972 38409 ft 451 kts 276°
2026-04-22 16:07 -32.04417 -89.93111 38413 ft 451 kts 276°
2026-04-22 16:08 -32.03272 -90.00393 38404 ft 451 kts 276°
2026-04-22 16:08 -32.02139 -90.07658 38410 ft 450 kts 276°
2026-04-22 16:09 -32.01009 -90.14879 38403 ft 449 kts 276°
2026-04-22 16:09 -31.99870 -90.22127 38410 ft 449 kts 276°
2026-04-22 16:10 -31.98735 -90.29326 38405 ft 448 kts 276°
2026-04-22 16:10 -31.97588 -90.36566 38414 ft 448 kts 276°
2026-04-22 16:11 -31.96446 -90.43757 38413 ft 448 kts 276°
2026-04-22 16:11 -31.95301 -90.50928 38411 ft 448 kts 276°
2026-04-22 16:12 -31.94142 -90.58163 38408 ft 447 kts 276°
2026-04-22 16:12 -31.92991 -90.65327 38407 ft 446 kts 276°
2026-04-22 16:13 -31.91854 -90.72490 38408 ft 445 kts 275°
2026-04-22 16:13 -31.90756 -90.79655 38407 ft 446 kts 277°
2026-04-22 16:14 -31.89528 -90.86846 38404 ft 446 kts 276°
2026-04-22 16:14 -31.88373 -90.93977 38403 ft 445 kts 276°
2026-04-22 16:15 -31.87170 -91.01156 38407 ft 444 kts 276°
2026-04-22 16:15 -31.85992 -91.08263 38405 ft 443 kts 276°
2026-04-22 16:16 -31.84802 -91.15373 38404 ft 443 kts 276°
2026-04-22 16:16 -31.83721 -91.22468 38402 ft 442 kts 276°
2026-04-22 16:17 -31.82496 -91.29588 38399 ft 442 kts 277°
2026-04-22 16:17 -31.81328 -91.36691 38403 ft 442 kts 276°
2026-04-22 16:18 -31.80138 -91.43757 38399 ft 442 kts 277°
2026-04-22 16:18 -31.78943 -91.50877 38408 ft 442 kts 276°
2026-04-22 16:19 -31.77750 -91.57952 38403 ft 442 kts 277°
2026-04-22 16:19 -31.76553 -91.65021 38400 ft 442 kts 277°
2026-04-22 16:20 -31.75353 -91.72088 38399 ft 442 kts 277°
2026-04-22 16:20 -31.74151 -91.79138 38399 ft 442 kts 277°
2026-04-22 16:21 -31.72942 -91.86207 38400 ft 442 kts 277°
2026-04-22 16:21 -31.71724 -91.93302 38400 ft 441 kts 277°
2026-04-22 16:22 -31.69898 -92.03893 38401 ft 441 kts 277°
2026-04-22 16:23 -31.68071 -92.14439 38395 ft 441 kts 277°
2026-04-22 16:23 -31.66839 -92.21514 38400 ft 441 kts 277°
2026-04-22 16:24 -31.64989 -92.32100 38396 ft 441 kts 277°
2026-04-22 16:25 -31.63751 -92.39157 38392 ft 441 kts 277°
2026-04-22 16:25 -31.61887 -92.49728 38396 ft 441 kts 277°
2026-04-22 16:26 -31.60853 -92.55575 38395 ft 441 kts 277°
2026-04-22 16:26 -31.59392 -92.63799 38401 ft 441 kts 278°
2026-04-22 16:27 -31.58346 -92.69672 38394 ft 441 kts 278°
2026-04-22 16:27 -31.57091 -92.76695 38393 ft 441 kts 278°
2026-04-22 16:28 -31.55825 -92.83758 38397 ft 441 kts 278°
2026-04-22 16:28 -31.54561 -92.90785 38390 ft 442 kts 278°
2026-04-22 16:29 -31.53291 -92.97819 38393 ft 442 kts 278°
2026-04-22 16:29 -31.52014 -93.04872 38393 ft 442 kts 278°
2026-04-22 16:30 -31.50736 -93.11904 38396 ft 441 kts 278°
2026-04-22 16:30 -31.49450 -93.18960 38394 ft 442 kts 278°
2026-04-22 16:31 -31.48170 -93.25960 38394 ft 442 kts 278°
2026-04-22 16:31 -31.46872 -93.33033 38392 ft 442 kts 278°
2026-04-22 16:32 -31.45581 -93.40046 38392 ft 442 kts 278°
2026-04-22 16:32 -31.44283 -93.47077 38392 ft 443 kts 278°
2026-04-22 16:33 -31.42971 -93.54155 38392 ft 443 kts 278°
2026-04-22 16:33 -31.41666 -93.61176 38397 ft 443 kts 278°
2026-04-22 16:34 -31.40354 -93.68211 38394 ft 443 kts 278°
2026-04-22 16:34 -31.39038 -93.75245 38389 ft 443 kts 279°
2026-04-22 16:35 -31.37711 -93.82313 38374 ft 443 kts 278°
2026-04-22 16:35 -31.36375 -93.89428 38392 ft 452 kts 278°
2026-04-22 16:36 -31.35017 -93.96595 38380 ft 451 kts 278°
2026-04-22 16:36 -31.33667 -94.03732 38377 ft 450 kts 278°
2026-04-22 16:37 -31.32308 -94.10879 38389 ft 451 kts 278°
2026-04-22 16:37 -31.30937 -94.18068 38388 ft 451 kts 278°
2026-04-22 16:38 -31.29572 -94.25199 38387 ft 451 kts 278°
2026-04-22 16:38 -31.28197 -94.32368 38376 ft 452 kts 278°
2026-04-22 16:39 -31.26814 -94.39549 38380 ft 452 kts 278°
2026-04-22 16:39 -31.25433 -94.46698 38379 ft 453 kts 278°
2026-04-22 16:40 -31.24045 -94.53863 38378 ft 453 kts 278°
2026-04-22 16:41 -31.21951 -94.64626 38379 ft 453 kts 278°
2026-04-22 16:41 -31.20548 -94.71810 38382 ft 454 kts 278°
2026-04-22 16:42 -31.19131 -94.79042 38383 ft 455 kts 279°
2026-04-22 16:42 -31.17719 -94.86228 38375 ft 455 kts 279°
2026-04-22 16:43 -31.16301 -94.93422 38377 ft 455 kts 279°
2026-04-22 16:43 -31.14882 -95.00597 38377 ft 455 kts 279°
2026-04-22 16:44 -31.13422 -95.07809 38374 ft 455 kts 279°
2026-04-22 16:44 -31.11966 -95.14991 38375 ft 455 kts 279°
2026-04-22 16:45 -31.10510 -95.22155 38374 ft 455 kts 279°
2026-04-22 16:45 -31.09041 -95.29359 38372 ft 455 kts 279°
2026-04-22 16:46 -31.07578 -95.36511 38371 ft 455 kts 279°
2026-04-22 16:46 -31.06099 -95.43718 38370 ft 456 kts 279°
2026-04-22 16:47 -31.04627 -95.50876 38371 ft 456 kts 279°
2026-04-22 16:47 -31.03143 -95.58063 38368 ft 457 kts 279°
2026-04-22 16:48 -31.01654 -95.65254 38365 ft 457 kts 280°
2026-04-22 16:48 -31.00154 -95.72479 38365 ft 457 kts 280°
2026-04-22 16:49 -30.98656 -95.79671 38363 ft 457 kts 280°
2026-04-22 16:49 -30.97156 -95.86857 38364 ft 457 kts 280°
2026-04-22 16:50 -30.95642 -95.94080 38365 ft 457 kts 280°
2026-04-22 16:50 -30.94135 -96.01254 38373 ft 457 kts 280°
2026-04-22 16:51 -30.92621 -96.08439 38371 ft 457 kts 280°
2026-04-22 16:51 -30.91095 -96.15658 38371 ft 458 kts 280°
2026-04-22 16:52 -30.89571 -96.22848 38366 ft 457 kts 280°
2026-04-22 16:52 -30.88050 -96.30002 38366 ft 457 kts 280°
2026-04-22 16:53 -30.86510 -96.37225 38368 ft 457 kts 280°
2026-04-22 16:53 -30.84976 -96.44399 38357 ft 458 kts 281°
2026-04-22 16:54 -30.83438 -96.51568 38351 ft 457 kts 281°
2026-04-22 16:54 -30.81899 -96.58724 38362 ft 457 kts 281°
2026-04-22 16:55 -30.80347 -96.65922 38353 ft 457 kts 281°
2026-04-22 16:55 -30.78802 -96.73061 38354 ft 457 kts 281°
2026-04-22 16:56 -30.77240 -96.80263 38354 ft 458 kts 281°
2026-04-22 16:56 -30.75685 -96.87410 38354 ft 459 kts 281°
2026-04-22 16:57 -30.74119 -96.94589 38351 ft 459 kts 281°
2026-04-22 16:57 -30.72540 -97.01804 38353 ft 458 kts 281°
2026-04-22 16:58 -30.71233 -97.07761 38355 ft 458 kts 281°
2026-04-22 16:58 -30.69394 -97.16120 38353 ft 458 kts 281°
2026-04-22 16:59 -30.67804 -97.23329 38351 ft 458 kts 281°
2026-04-22 16:59 -30.66223 -97.30475 38355 ft 459 kts 281°
2026-04-22 17:00 -30.64636 -97.37621 38351 ft 458 kts 281°
2026-04-22 17:00 -30.62234 -97.48412 38352 ft 459 kts 281°
2026-04-22 17:01 -30.60638 -97.55552 38357 ft 459 kts 281°
2026-04-22 17:01 -30.59024 -97.62755 38357 ft 459 kts 281°
2026-04-22 17:02 -30.57414 -97.69921 38360 ft 460 kts 282°
2026-04-22 17:02 -30.55800 -97.77083 38359 ft 460 kts 282°
2026-04-22 17:03 -30.54181 -97.84247 38353 ft 459 kts 282°
2026-04-22 17:03 -30.52552 -97.91437 38349 ft 459 kts 282°
2026-04-22 17:04 -30.50929 -97.98582 38348 ft 459 kts 282°
2026-04-22 17:04 -30.49293 -98.05762 38349 ft 459 kts 282°
2026-04-22 17:05 -30.47660 -98.12910 38348 ft 460 kts 282°
2026-04-22 17:05 -30.46025 -98.20048 38346 ft 459 kts 282°
2026-04-22 17:06 -30.44378 -98.27217 38346 ft 459 kts 282°
2026-04-22 17:06 -30.42736 -98.34346 38346 ft 460 kts 282°
2026-04-22 17:07 -30.41078 -98.41527 38344 ft 459 kts 282°
2026-04-22 17:07 -30.39427 -98.48659 38340 ft 460 kts 282°
2026-04-22 17:08 -30.37757 -98.55846 38345 ft 460 kts 283°
2026-04-22 17:08 -30.36095 -98.62986 38336 ft 460 kts 283°
2026-04-22 17:09 -30.34417 -98.70173 38340 ft 461 kts 283°
2026-04-22 17:09 -30.32744 -98.77322 38342 ft 461 kts 283°
2026-04-22 17:10 -30.31070 -98.84455 38341 ft 462 kts 283°
2026-04-22 17:10 -30.29375 -98.91659 38338 ft 462 kts 283°
2026-04-22 17:11 -30.27692 -98.98790 38340 ft 461 kts 283°
2026-04-22 17:11 -30.26282 -99.04755 38338 ft 461 kts 283°
2026-04-22 17:12 -30.24584 -99.11917 38337 ft 461 kts 283°
2026-04-22 17:12 -30.22890 -99.19043 38338 ft 461 kts 283°
2026-04-22 17:13 -30.21181 -99.26210 38333 ft 461 kts 283°
2026-04-22 17:13 -30.19475 -99.33353 38330 ft 461 kts 283°
2026-04-22 17:14 -30.17766 -99.40484 38328 ft 462 kts 283°
2026-04-22 17:14 -30.16050 -99.47630 38328 ft 462 kts 283°
2026-04-22 17:15 -30.14319 -99.54816 38330 ft 461 kts 284°
2026-04-22 17:15 -30.12603 -99.61922 38328 ft 461 kts 284°
2026-04-22 17:16 -30.10879 -99.69043 38330 ft 461 kts 284°
2026-04-22 17:16 -30.09144 -99.76191 38320 ft 461 kts 284°
2026-04-22 17:17 -30.07402 -99.83350 38321 ft 461 kts 284°
2026-04-22 17:17 -30.05671 -99.90447 38328 ft 461 kts 284°
2026-04-22 17:18 -30.03935 -99.97544 38324 ft 461 kts 284°
2026-04-22 17:18 -30.02184 -100.04704 38322 ft 461 kts 284°
2026-04-22 17:19 -29.98709 -100.18930 38321 ft 462 kts 284°
2026-04-22 17:20 -29.95194 -100.33233 38315 ft 463 kts 284°
2026-04-22 17:21 -29.92552 -100.43941 38313 ft 464 kts 284°
2026-04-22 17:22 -29.89898 -100.54651 38318 ft 464 kts 284°
2026-04-22 17:23 -29.87221 -100.65415 38313 ft 464 kts 284°
2026-04-22 17:23 -29.84550 -100.76114 38316 ft 464 kts 284°
2026-04-22 17:24 -29.82769 -100.83228 38314 ft 463 kts 284°
2026-04-22 17:24 -29.80982 -100.90342 38313 ft 463 kts 284°
2026-04-22 17:25 -29.79196 -100.97439 38314 ft 462 kts 284°
2026-04-22 17:25 -29.77395 -101.04577 38310 ft 463 kts 285°
2026-04-22 17:26 -29.75599 -101.11680 38313 ft 464 kts 285°
2026-04-22 17:26 -29.73795 -101.18794 38312 ft 464 kts 285°
2026-04-22 17:27 -29.71982 -101.25927 38307 ft 465 kts 285°
2026-04-22 17:27 -29.70158 -101.33087 38311 ft 465 kts 285°
2026-04-22 17:28 -29.68331 -101.40236 38306 ft 465 kts 285°
2026-04-22 17:28 -29.66505 -101.47368 38299 ft 465 kts 285°
2026-04-22 17:29 -29.64676 -101.54492 38300 ft 465 kts 285°
2026-04-22 17:29 -29.62844 -101.61611 38298 ft 466 kts 285°
2026-04-22 17:30 -29.60997 -101.68772 38302 ft 466 kts 285°
2026-04-22 17:30 -29.59154 -101.75898 38304 ft 466 kts 285°
2026-04-22 17:31 -29.57312 -101.83006 38298 ft 466 kts 285°
2026-04-22 17:31 -29.55453 -101.90159 38302 ft 466 kts 285°
2026-04-22 17:32 -29.53601 -101.97270 38292 ft 466 kts 285°
2026-04-22 17:32 -29.51746 -102.04374 38291 ft 466 kts 285°
2026-04-22 17:33 -29.49873 -102.11530 38293 ft 466 kts 285°
2026-04-22 17:33 -29.48008 -102.18637 38289 ft 466 kts 285°
2026-04-22 17:34 -29.46141 -102.25737 38299 ft 466 kts 285°
2026-04-22 17:34 -29.44260 -102.32872 38292 ft 466 kts 285°
2026-04-22 17:35 -29.42388 -102.39960 38300 ft 466 kts 285°
2026-04-22 17:35 -29.40497 -102.47097 38292 ft 466 kts 285°
2026-04-22 17:36 -29.38610 -102.54202 38289 ft 466 kts 285°
2026-04-22 17:36 -29.36722 -102.61296 38297 ft 466 kts 285°
2026-04-22 17:37 -29.34829 -102.68391 38303 ft 466 kts 285°
2026-04-22 17:37 -29.32924 -102.75516 38292 ft 466 kts 285°
2026-04-22 17:38 -29.31032 -102.82578 38304 ft 466 kts 285°
2026-04-22 17:38 -29.29116 -102.89711 38303 ft 466 kts 286°
2026-04-22 17:39 -29.27211 -102.96781 38297 ft 466 kts 286°
2026-04-22 17:40 -29.24341 -103.07411 38297 ft 467 kts 286°
2026-04-22 17:40 -29.22410 -103.14540 38298 ft 467 kts 286°
2026-04-22 17:41 -29.20486 -103.21625 38296 ft 468 kts 286°
2026-04-22 17:41 -29.18546 -103.28756 38290 ft 468 kts 286°
2026-04-22 17:42 -29.16613 -103.35842 38286 ft 468 kts 286°
2026-04-22 17:42 -29.14989 -103.41786 38291 ft 468 kts 286°
2026-04-22 17:43 -29.12718 -103.50073 38290 ft 468 kts 286°
2026-04-22 17:43 -29.10767 -103.57177 38291 ft 468 kts 286°
2026-04-22 17:44 -29.08816 -103.64265 38289 ft 469 kts 286°
2026-04-22 17:44 -29.06846 -103.71405 38287 ft 470 kts 286°
2026-04-22 17:45 -29.04883 -103.78504 38288 ft 470 kts 286°
2026-04-22 17:45 -29.02915 -103.85603 38289 ft 470 kts 286°
2026-04-22 17:46 -29.00929 -103.92754 38285 ft 470 kts 286°
2026-04-22 17:46 -28.98956 -103.99840 38285 ft 469 kts 286°
2026-04-22 17:47 -28.96978 -104.06927 38291 ft 470 kts 286°
2026-04-22 17:47 -28.94980 -104.14070 38290 ft 469 kts 286°
2026-04-22 17:48 -28.93325 -104.19974 38294 ft 469 kts 286°
2026-04-22 17:48 -28.91005 -104.28235 38293 ft 469 kts 286°
2026-04-22 17:49 -28.89016 -104.35297 38294 ft 469 kts 286°
2026-04-22 17:49 -28.87007 -104.42416 38292 ft 469 kts 286°
2026-04-22 17:50 -28.85010 -104.49478 38289 ft 469 kts 286°
2026-04-22 17:50 -28.82996 -104.56579 38292 ft 469 kts 286°
2026-04-22 17:51 -28.80996 -104.63621 38291 ft 469 kts 286°
2026-04-22 17:51 -28.78977 -104.70710 38293 ft 469 kts 286°
2026-04-22 17:52 -28.76961 -104.77775 38295 ft 469 kts 286°
2026-04-22 17:52 -28.74946 -104.84821 38294 ft 470 kts 286°
2026-04-22 17:53 -28.72906 -104.91935 38298 ft 470 kts 286°
2026-04-22 17:53 -28.70885 -104.98970 38291 ft 469 kts 286°
2026-04-22 17:54 -28.68857 -105.06016 38296 ft 469 kts 286°
2026-04-22 17:54 -28.66815 -105.13091 38296 ft 469 kts 286°
2026-04-22 17:55 -28.65116 -105.18967 38296 ft 469 kts 286°
2026-04-22 17:55 -28.62731 -105.27199 38291 ft 470 kts 286°
2026-04-22 17:56 -28.61026 -105.33071 38294 ft 470 kts 286°
2026-04-22 17:56 -28.58962 -105.40165 38292 ft 470 kts 286°
2026-04-22 17:57 -28.56902 -105.47230 38294 ft 471 kts 286°
2026-04-22 17:57 -28.54842 -105.54278 38294 ft 471 kts 286°
2026-04-22 17:58 -28.52767 -105.61365 38294 ft 471 kts 286°
2026-04-22 17:58 -28.50698 -105.68413 38290 ft 471 kts 286°
2026-04-22 17:59 -28.48618 -105.75486 38294 ft 471 kts 286°
2026-04-22 17:59 -28.46545 -105.82519 38289 ft 471 kts 286°
2026-04-22 18:00 -28.44469 -105.89547 38287 ft 472 kts 286°
2026-04-22 18:00 -28.42374 -105.96655 38290 ft 471 kts 286°
2026-04-22 18:01 -28.40334 -106.03700 38290 ft 472 kts 286°
2026-04-22 18:01 -28.38262 -106.10764 38296 ft 473 kts 286°
2026-04-22 18:02 -28.36187 -106.17864 38294 ft 472 kts 286°
2026-04-22 18:02 -28.34104 -106.24953 38290 ft 472 kts 286°
2026-04-22 18:03 -28.32030 -106.32007 38287 ft 472 kts 286°
2026-04-22 18:03 -28.29961 -106.39024 38283 ft 471 kts 286°
2026-04-22 18:04 -28.27876 -106.46083 38282 ft 472 kts 286°
2026-04-22 18:04 -28.25776 -106.53177 38284 ft 472 kts 286°
2026-04-22 18:05 -28.23686 -106.60220 38285 ft 473 kts 286°
2026-04-22 18:05 -28.21592 -106.67264 38281 ft 473 kts 286°
2026-04-22 18:06 -28.19477 -106.74362 38288 ft 474 kts 286°
2026-04-22 18:06 -28.17362 -106.81445 38287 ft 474 kts 286°
2026-04-22 18:07 -28.15244 -106.88524 38284 ft 474 kts 286°
2026-04-22 18:07 -28.13129 -106.95578 38281 ft 474 kts 286°
2026-04-22 18:08 -28.10993 -107.02687 38279 ft 474 kts 286°
2026-04-22 18:08 -28.08868 -107.09745 38278 ft 474 kts 286°
2026-04-22 18:09 -28.06746 -107.16779 38280 ft 474 kts 286°
2026-04-22 18:09 -28.04613 -107.23834 38283 ft 475 kts 286°
2026-04-22 18:10 -28.02469 -107.30910 38282 ft 475 kts 286°
2026-04-22 18:10 -28.00329 -107.37957 38283 ft 476 kts 286°
2026-04-22 18:11 -27.98157 -107.45081 38281 ft 476 kts 286°
2026-04-22 18:11 -27.96005 -107.52128 38283 ft 475 kts 286°
2026-04-22 18:12 -27.93847 -107.59180 38281 ft 476 kts 286°
2026-04-22 18:12 -27.92035 -107.65089 38279 ft 476 kts 286°
2026-04-22 18:13 -27.89500 -107.73338 38276 ft 476 kts 286°
2026-04-22 18:13 -27.87338 -107.80357 38046 ft 473 kts 286°
2026-04-22 18:13 -27.86250 -107.83887 37598 ft 475 kts 286°
2026-04-22 18:14 -27.85156 -107.87432 37206 ft 476 kts 286°
2026-04-22 18:14 -27.84074 -107.90931 36821 ft 477 kts 286°
2026-04-22 18:14 -27.82976 -107.94480 36428 ft 478 kts 286°
2026-04-22 18:14 -27.81874 -107.98039 36040 ft 478 kts 286°
2026-04-22 18:15 -27.80781 -108.01565 35645 ft 478 kts 287°
2026-04-22 18:15 -27.79679 -108.05119 34744 ft 482 kts 287°
2026-04-22 18:15 -27.78565 -108.08706 33834 ft 484 kts 287°
2026-04-22 18:15 -27.77444 -108.12309 32892 ft 485 kts 287°
2026-04-22 18:16 -27.76335 -108.15868 31998 ft 486 kts 287°
2026-04-22 18:16 -27.75213 -108.19469 31115 ft 485 kts 287°
2026-04-22 18:16 -27.74089 -108.23075 30253 ft 485 kts 288°
2026-04-22 18:16 -27.72967 -108.26668 29251 ft 483 kts 288°
2026-04-22 18:17 -27.71849 -108.30245 28314 ft 481 kts 288°
2026-04-22 18:17 -27.70745 -108.33773 27397 ft 479 kts 288°
2026-04-22 18:17 -27.69631 -108.37330 26503 ft 476 kts 288°
2026-04-22 18:17 -27.68527 -108.40850 25635 ft 473 kts 289°
2026-04-22 18:18 -27.67437 -108.44288 24803 ft 469 kts 290°
2026-04-22 18:18 -27.66207 -108.47700 23990 ft 465 kts 291°
2026-04-22 18:18 -27.65074 -108.50972 23065 ft 461 kts 291°
2026-04-22 18:18 -27.63923 -108.54298 22164 ft 456 kts 291°
2026-04-22 18:19 -27.62748 -108.57614 21326 ft 450 kts 291°
2026-04-22 18:19 -27.61599 -108.60835 20561 ft 443 kts 291°
2026-04-22 18:19 -27.60467 -108.64044 19847 ft 436 kts 290°
2026-04-22 18:19 -27.59354 -108.67210 19155 ft 429 kts 290°
2026-04-22 18:20 -27.58261 -108.70300 18453 ft 422 kts 290°
2026-04-22 18:20 -27.57176 -108.73356 17689 ft 416 kts 290°
2026-04-22 18:20 -27.56109 -108.76366 16970 ft 409 kts 290°
2026-04-22 18:20 -27.55074 -108.79285 16282 ft 402 kts 290°
2026-04-22 18:21 -27.54038 -108.82204 15595 ft 396 kts 290°
2026-04-22 18:21 -27.53023 -108.85065 14926 ft 390 kts 290°
2026-04-22 18:21 -27.52021 -108.87882 14273 ft 384 kts 291°
2026-04-22 18:21 -27.51043 -108.90633 13638 ft 377 kts 291°
2026-04-22 18:22 -27.50073 -108.93356 12994 ft 370 kts 291°
2026-04-22 18:22 -27.49129 -108.96003 12369 ft 364 kts 291°
2026-04-22 18:22 -27.48193 -108.98632 11752 ft 357 kts 291°
2026-04-22 18:22 -27.47271 -109.01219 11170 ft 351 kts 291°
2026-04-22 18:23 -27.46368 -109.03746 10640 ft 344 kts 291°
2026-04-22 18:23 -27.45484 -109.06221 10118 ft 337 kts 291°
2026-04-22 18:23 -27.44701 -109.08412 9605 ft 332 kts 291°
2026-04-22 18:24 -27.43012 -109.13135 8488 ft 322 kts 292°
2026-04-22 18:24 -27.42183 -109.15450 7944 ft 318 kts 292°
2026-04-22 18:24 -27.40554 -109.19994 6882 ft 310 kts 293°
2026-04-22 18:25 -27.39744 -109.22252 6333 ft 307 kts 293°
2026-04-22 18:25 -27.38947 -109.24468 5798 ft 303 kts 293°
2026-04-22 18:25 -27.38177 -109.26616 5501 ft 291 kts 293°
2026-04-22 18:26 -27.36699 -109.30695 4974 ft 274 kts 296°
2026-04-22 18:26 -27.35803 -109.32571 4712 ft 272 kts 299°
2026-04-22 18:26 -27.34979 -109.34464 4450 ft 271 kts 297°
2026-04-22 18:26 -27.34142 -109.36369 4190 ft 269 kts 298°
2026-04-22 18:27 -27.33297 -109.38219 3978 ft 264 kts 299°
2026-04-22 18:27 -27.32449 -109.40062 3753 ft 267 kts 299°
2026-04-22 18:27 -27.31595 -109.41937 3511 ft 267 kts 299°
2026-04-22 18:27 -27.30757 -109.43786 3239 ft 266 kts 299°
2026-04-22 18:28 -27.29914 -109.45640 3005 ft 265 kts 300°
2026-04-22 18:28 -27.29090 -109.47446 2992 ft 262 kts 300°
2026-04-22 18:28 -27.28258 -109.49267 3000 ft 263 kts 299°
2026-04-22 18:28 -27.27415 -109.51116 2996 ft 266 kts 300°
2026-04-22 18:29 -27.26586 -109.52934 2992 ft 263 kts 299°
2026-04-22 18:29 -27.25747 -109.54769 2996 ft 263 kts 299°
2026-04-22 18:29 -27.24904 -109.56618 2990 ft 261 kts 299°
2026-04-22 18:29 -27.24079 -109.58422 3000 ft 266 kts 299°
2026-04-22 18:30 -27.23240 -109.60257 2987 ft 260 kts 299°
2026-04-22 18:30 -27.21544 -109.63853 2976 ft 261 kts 308°
2026-04-22 18:30 -27.20180 -109.65124 2955 ft 252 kts 333°
2026-04-22 18:31 -27.18487 -109.65598 2637 ft 252 kts
2026-04-22 18:31 -27.16789 -109.65201 2481 ft 248 kts 25°
2026-04-22 18:31 -27.15260 -109.64346 2498 ft 248 kts 26°
2026-04-22 18:31 -27.13714 -109.63463 2499 ft 249 kts 27°
2026-04-22 18:32 -27.12165 -109.62569 2494 ft 250 kts 27°
2026-04-22 18:32 -27.10697 -109.61551 2484 ft 251 kts 42°
2026-04-22 18:32 -27.09765 -109.59987 2497 ft 231 kts 66°
2026-04-22 18:32 -27.09513 -109.58292 2485 ft 214 kts 89°
2026-04-22 18:33 -27.09847 -109.56716 2461 ft 204 kts 111°
2026-04-22 18:33 -27.10475 -109.55344 2455 ft 190 kts 113°
2026-04-22 18:33 -27.11050 -109.54066 2336 ft 182 kts 113°
2026-04-22 18:33 -27.11586 -109.52896 2345 ft 155 kts 113°
2026-04-22 18:34 -27.12058 -109.51867 2120 ft 145 kts 112°
2026-04-22 18:34 -27.12520 -109.50881 1844 ft 142 kts 114°
2026-04-22 18:34 -27.12992 -109.49889 1600 ft 142 kts 114°
2026-04-22 18:34 -27.13449 -109.48895 1421 ft 141 kts 111°
2026-04-22 18:35 -27.13896 -109.47914 1114 ft 143 kts 112°
2026-04-22 18:35 -27.14362 -109.46945 827 ft 142 kts 113°
2026-04-22 18:35 -27.14803 -109.45941 585 ft 143 kts 112°
2026-04-22 18:35 -27.14985 -109.45535 569 ft 136 kts 115°
2026-04-22 18:36 -27.15415 -109.44556 367 ft 148 kts 112°
2026-04-22 18:36 -27.15869 -109.43536 167 ft 144 kts 114°
2026-04-22 18:36 -27.16244 -109.42696 148 ft 97 kts 115°
2026-04-22 18:36 -27.16441 -109.42252 149 ft 36 kts 118°
2026-04-22 18:37 -27.16534 -109.42056 151 ft 27 kts 117°
2026-04-22 18:37 -27.16625 -109.41855 152 ft 31 kts 116°
2026-04-22 18:37 -27.16688 -109.41712 152 ft 29 kts 117°
2026-04-22 18:37 -27.16802 -109.41458 149 ft 26 kts 117°
2026-04-22 18:38 -27.16884 -109.41288 149 ft 23 kts 119°
2026-04-22 18:38 -27.16955 -109.41133 147 ft 22 kts 115°
2026-04-22 18:38 -27.17019 -109.40990 148 ft 19 kts 117°
2026-04-22 18:39 -27.17066 -109.40776 146 ft 8 kts 89°
2026-04-22 18:39 -27.17074 -109.40764 147 ft 0 kts 138°
2026-04-22 18:39 -27.17083 -109.40765 147 ft 3 kts 184°
2026-04-22 18:39 -27.17103 -109.40792 147 ft 3 kts 273°
2026-04-22 18:40 -27.17081 -109.40850 147 ft 12 kts 295°
2026-04-22 18:40 -27.17051 -109.40920 148 ft 18 kts 297°
2026-04-22 18:40 -27.16947 -109.41139 147 ft 30 kts 296°
2026-04-22 18:40 -27.16839 -109.41373 149 ft 37 kts 296°
2026-04-22 18:41 -27.16737 -109.41614 152 ft 32 kts 296°
2026-04-22 18:41 -27.16701 -109.41695 152 ft 30 kts 297°
2026-04-22 18:41 -27.16611 -109.41894 153 ft 27 kts 297°
2026-04-22 18:42 -27.16555 -109.42015 152 ft 25 kts 296°
2026-04-22 18:42 -27.16480 -109.42185 149 ft 23 kts 297°
2026-04-22 18:42 -27.16404 -109.42348 148 ft 24 kts 297°
2026-04-22 18:42 -27.16325 -109.42523 147 ft 25 kts 296°
2026-04-22 18:43 -27.16247 -109.42687 147 ft 23 kts 297°
2026-04-22 18:43 -27.16221 -109.42747 147 ft 22 kts 296°
2026-04-22 18:43 -27.16218 -109.42753 147 ft 21 kts 296°
2026-04-22 18:43 -27.16153 -109.42878 150 ft 11 kts 324°
2026-04-22 18:44 -27.16119 -109.42875 150 ft 3 kts 17°
2026-04-22 18:44 -27.16089 -109.42862 151 ft 5 kts 22°
2026-04-22 18:44 -27.16071 -109.42854 151 ft 1 kts 22°
2026-04-22 18:44 -27.16068 -109.42854 151 ft 0 kts 13°
2026-04-22 18:45 -27.16061 -109.42855 151 ft 1 kts 357°
2026-04-22 18:45 -27.16048 -109.42861 151 ft 2 kts 333°
2026-04-22 18:45 -27.16042 -109.42872 151 ft 3 kts 305°
2026-04-22 18:45 -27.16022 -109.42922 150 ft 11 kts 295°
2026-04-22 18:46 -27.15986 -109.42944 150 ft 1 kts
2026-04-22 18:46 -27.15982 -109.42943 150 ft 1 kts
2026-04-22 18:46 -27.15978 -109.42942 150 ft 0 kts
2026-04-22 18:47 -27.16001 -109.42865 152 ft 0 kts 297°